TimeCDT,TemperatureF,Dew PointF,Humidity,Sea Level PressureIn,VisibilityMPH,Wind Direction,Wind SpeedMPH,Gust SpeedMPH,PrecipitationIn,Events,Conditions,WindDirDegrees,DateUTC
12:15 AM,30.7,21.7,69,30.03,10.0,WNW,9.2,-,N/A,,Clear,290,2011-10-31 05:15:00
12:35 AM,32.7,23.2,68,30.02,10.0,WNW,9.2,-,N/A,,Clear,300,2011-10-31 05:35:00
12:55 AM,33.8,23.5,66,30.04,10.0,WNW,10.4,-,N/A,,Clear,300,2011-10-31 05:55:00
1:15 AM,32.5,23.0,68,30.04,10.0,WNW,9.2,-,N/A,,Clear,300,2011-10-31 06:15:00
1:35 AM,32.5,23.5,69,30.04,10.0,WNW,8.1,-,N/A,,Clear,300,2011-10-31 06:35:00
1:55 AM,32.5,23.7,70,30.04,10.0,WNW,8.1,-,N/A,,Clear,290,2011-10-31 06:55:00
2:15 AM,29.8,21.7,72,30.04,10.0,West,9.2,-,N/A,,Clear,280,2011-10-31 07:15:00
2:55 AM,28.2,21.6,76,30.04,10.0,West,8.1,-,N/A,,Clear,280,2011-10-31 07:55:00
3:15 AM,27.3,21.0,77,30.04,10.0,West,8.1,-,N/A,,Clear,270,2011-10-31 08:15:00
3:35 AM,27.1,21.0,78,30.05,10.0,West,9.2,-,N/A,,Clear,270,2011-10-31 08:35:00
3:55 AM,27.1,21.2,78,30.05,10.0,West,10.4,-,N/A,,Clear,260,2011-10-31 08:55:00
4:15 AM,27.1,21.4,79,30.05,10.0,West,10.4,-,N/A,,Clear,260,2011-10-31 09:15:00
4:35 AM,26.2,20.7,79,30.05,10.0,West,9.2,-,N/A,,Clear,270,2011-10-31 09:35:00
4:55 AM,25.9,20.7,81,30.05,10.0,West,10.4,-,N/A,,Clear,270,2011-10-31 09:55:00
5:15 AM,26.1,20.7,80,30.05,10.0,West,10.4,-,N/A,,Clear,270,2011-10-31 10:15:00
5:35 AM,26.2,20.8,80,30.06,10.0,West,9.2,-,N/A,,Clear,270,2011-10-31 10:35:00
5:55 AM,26.6,21.2,80,30.06,10.0,West,10.4,-,N/A,,Clear,270,2011-10-31 10:55:00
6:15 AM,26.4,21.0,80,30.05,10.0,West,6.9,-,N/A,,Clear,280,2011-10-31 11:15:00
6:35 AM,26.2,21.0,81,30.05,10.0,West,8.1,-,N/A,,Clear,270,2011-10-31 11:35:00
6:55 AM,26.8,21.6,81,30.05,10.0,West,6.9,-,N/A,,Clear,270,2011-10-31 11:55:00
7:15 AM,26.1,21.0,81,30.04,10.0,WSW,5.8,-,N/A,,Clear,250,2011-10-31 12:15:00
7:35 AM,26.1,21.2,82,30.05,10.0,WSW,6.9,-,N/A,,Clear,240,2011-10-31 12:35:00
7:55 AM,25.7,21.2,83,30.05,10.0,WSW,6.9,-,N/A,,Clear,250,2011-10-31 12:55:00
8:15 AM,26.6,21.6,81,30.06,10.0,SW,5.8,-,N/A,,Clear,230,2011-10-31 13:15:00
8:35 AM,26.6,21.6,81,30.06,10.0,SW,5.8,-,N/A,,Clear,220,2011-10-31 13:35:00
8:55 AM,28.2,23.0,81,30.06,10.0,SW,4.6,-,N/A,,Clear,220,2011-10-31 13:55:00
9:15 AM,30.6,24.3,77,30.06,10.0,SW,5.8,-,N/A,,Clear,220,2011-10-31 14:15:00
9:35 AM,32.4,25.2,75,30.06,10.0,SW,5.8,-,N/A,,Clear,220,2011-10-31 14:35:00
9:55 AM,34.2,26.1,72,30.06,10.0,SW,5.8,-,N/A,,Clear,220,2011-10-31 14:55:00
10:15 AM,37.2,27.1,67,30.06,10.0,SW,5.8,-,N/A,,Clear,220,2011-10-31 15:15:00
10:35 AM,40.5,27.1,59,30.05,10.0,SSW,5.8,-,N/A,,Clear,200,2011-10-31 15:35:00
10:55 AM,43.3,26.8,52,30.04,10.0,SSW,4.6,-,N/A,,Clear,210,2011-10-31 15:55:00
11:15 AM,46.2,26.2,46,30.04,10.0,South,5.8,-,N/A,,Clear,190,2011-10-31 16:15:00
11:35 AM,48.0,25.5,41,30.05,10.0,SSW,10.4,-,N/A,,Clear,210,2011-10-31 16:35:00
11:55 AM,49.5,24.4,38,30.04,10.0,SW,9.2,-,N/A,,Clear,220,2011-10-31 16:55:00
12:15 PM,50.5,23.5,35,30.04,10.0,SSW,6.9,-,N/A,,Clear,200,2011-10-31 17:15:00
12:35 PM,52.0,22.3,31,30.02,10.0,SSW,8.1,-,N/A,,Clear,210,2011-10-31 17:35:00
12:55 PM,53.1,20.3,28,30.01,10.0,SSW,9.2,-,N/A,,Clear,200,2011-10-31 17:55:00
1:15 PM,54.3,19.2,25,30.01,10.0,SSW,10.4,-,N/A,,Clear,210,2011-10-31 18:15:00
1:35 PM,55.4,18.5,24,29.99,10.0,SSW,10.4,16.1,N/A,,Clear,200,2011-10-31 18:35:00
1:55 PM,56.3,17.8,22,29.98,10.0,South,8.1,-,N/A,,Clear,190,2011-10-31 18:55:00
2:15 PM,57.0,16.3,20,29.98,10.0,South,9.2,-,N/A,,Clear,190,2011-10-31 19:15:00
2:35 PM,57.6,15.8,19,29.97,10.0,South,13.8,-,N/A,,Clear,190,2011-10-31 19:35:00
2:55 PM,58.3,15.1,18,29.96,10.0,SSW,12.7,16.1,N/A,,Clear,200,2011-10-31 19:55:00
3:15 PM,58.8,15.4,18,29.96,10.0,South,12.7,18.4,N/A,,Clear,190,2011-10-31 20:15:00
3:35 PM,59.4,15.3,18,29.95,10.0,South,12.7,18.4,N/A,,Clear,190,2011-10-31 20:35:00
3:55 PM,59.5,14.4,17,29.95,10.0,South,13.8,-,N/A,,Clear,190,2011-10-31 20:55:00
4:15 PM,59.7,14.2,17,29.94,10.0,South,13.8,-,N/A,,Clear,190,2011-10-31 21:15:00
4:35 PM,59.7,14.7,17,29.94,10.0,South,12.7,-,N/A,,Clear,190,2011-10-31 21:35:00
4:55 PM,59.4,14.7,17,29.94,10.0,South,13.8,-,N/A,,Clear,180,2011-10-31 21:55:00
5:15 PM,59.0,15.1,18,29.94,10.0,South,11.5,-,N/A,,Clear,170,2011-10-31 22:15:00
5:35 PM,57.9,15.8,19,29.94,10.0,South,10.4,-,N/A,,Clear,170,2011-10-31 22:35:00
5:55 PM,55.9,16.7,21,29.93,10.0,SSE,10.4,-,N/A,,Clear,160,2011-10-31 22:55:00
6:15 PM,53.2,17.2,24,29.93,10.0,SSE,10.4,-,N/A,,Clear,160,2011-10-31 23:15:00
6:35 PM,50.5,17.4,27,29.93,10.0,SSE,11.5,-,N/A,,Clear,160,2011-10-31 23:35:00
6:55 PM,48.9,18.0,29,29.94,10.0,SSE,10.4,-,N/A,,Clear,150,2011-10-31 23:55:00
7:15 PM,48.7,18.7,30,29.94,10.0,SSE,11.5,-,N/A,,Clear,160,2011-11-01 00:15:00
7:35 PM,48.9,18.7,30,29.94,10.0,SSE,11.5,-,N/A,,Clear,160,2011-11-01 00:35:00
7:55 PM,47.8,19.2,32,29.95,10.0,SSE,9.2,-,N/A,,Clear,160,2011-11-01 00:55:00
8:15 PM,46.4,19.8,35,29.94,10.0,SSE,9.2,-,N/A,,Clear,150,2011-11-01 01:15:00
8:35 PM,46.0,19.6,35,29.94,10.0,SSE,11.5,-,N/A,,Clear,150,2011-11-01 01:35:00
9:15 PM,47.7,19.4,33,29.94,10.0,SSE,12.7,-,N/A,,Clear,160,2011-11-01 02:15:00
9:35 PM,47.7,19.8,33,29.94,10.0,SSE,16.1,-,N/A,,Clear,150,2011-11-01 02:35:00
9:55 PM,47.1,20.1,34,29.93,10.0,SSE,13.8,-,N/A,,Clear,150,2011-11-01 02:55:00
10:15 PM,46.8,20.5,35,29.93,10.0,SSE,12.7,-,N/A,,Clear,150,2011-11-01 03:15:00
10:35 PM,46.6,21.0,36,29.93,10.0,SSE,13.8,19.6,N/A,,Clear,150,2011-11-01 03:35:00
10:55 PM,46.9,21.2,36,29.92,10.0,SSE,15.0,-,N/A,,Clear,150,2011-11-01 03:55:00
11:15 PM,47.3,21.6,36,29.91,10.0,SSE,15.0,19.6,N/A,,Clear,150,2011-11-01 04:15:00
11:35 PM,46.8,21.9,37,29.91,10.0,SSE,13.8,-,N/A,,Clear,150,2011-11-01 04:35:00
11:55 PM,46.2,22.3,39,29.91,10.0,SSE,11.5,-,N/A,,Clear,160,2011-11-01 04:55:00